This is the latest recevied weather packets stored in our database for station/object OE-11121. If no packets are shown the sender has not sent any weather packets the latest 10 day(s).
| Time | Temp. | Humidity | Pressure | Rain* | Wind** | Luminosity | Snow |
|---|---|---|---|---|---|---|---|
| 1787848906 | 30.56° C | 36% | 1010.1 hPa | 0 mm | - | 144 W/m² | - |
| 1787848533 | 30.56° C | 35% | 1010.1 hPa | 0 mm | - | 156 W/m² | - |
| 1787847933 | 30.56° C | 36% | 1010 hPa | 0 mm | - | 204 W/m² | - |
| 1787847106 | 30.56° C | 36% | 1010.1 hPa | 0 mm | - | 192 W/m² | - |
| 1787846733 | 30.56° C | 36% | 1010.2 hPa | 0 mm | - | 252 W/m² | - |
| 1787846133 | 30.56° C | 36% | 1010.2 hPa | 0 mm | - | 300 W/m² | - |
| 1787845305 | 30.56° C | 35% | 1010.2 hPa | 0 mm | - | 216 W/m² | - |
| 1787844933 | 30.56° C | 34% | 1010.2 hPa | 0 mm | - | 192 W/m² | - |
| 1787844333 | 30.56° C | 36% | 1010.1 hPa | 0 mm | - | 252 W/m² | - |
| 1787843506 | 30.56° C | 36% | 1010.1 hPa | 0 mm | - | 276 W/m² | - |
| 1787843133 | 30.56° C | 35% | 1010 hPa | 0 mm | - | 288 W/m² | - |
| 1787842533 | 30.56° C | 37% | 1010.2 hPa | 0 mm | - | 288 W/m² | - |
| 1787841705 | 30.56° C | 36% | 1009.9 hPa | 0 mm | - | 264 W/m² | - |
| 1787841333 | 30.56° C | 36% | 1010 hPa | 0 mm | - | 264 W/m² | - |
| 1787839906 | 31.11° C | 36% | 1009.8 hPa | 0 mm | - | 325 W/m² | - |
| 1787839533 | 31.11° C | 36% | 1009.8 hPa | 0 mm | - | 300 W/m² | - |
| 1787838933 | 30.56° C | 37% | 1010 hPa | 0 mm | - | 288 W/m² | - |
| 1787838106 | 31.11° C | 36% | 1009.9 hPa | 0 mm | - | 300 W/m² | - |
| 1787837733 | 31.67° C | 36% | 1009.8 hPa | 0 mm | - | 409 W/m² | - |
| 1787837133 | 31.67° C | 35% | 1009.7 hPa | 0 mm | - | 601 W/m² | - |
| 1787836306 | 31.67° C | 35% | 1009.7 hPa | 0 mm | - | 613 W/m² | - |
| 1787835932 | 31.67° C | 35% | 1009.8 hPa | 0 mm | - | 577 W/m² | - |
| 1787835333 | 31.11° C | 36% | 1009.8 hPa | 0 mm | - | 529 W/m² | - |
| 1787834506 | 31.11° C | 34% | 1009.9 hPa | 0 mm | - | 589 W/m² | - |
| 1787834132 | 31.11° C | 37% | 1010.2 hPa | 0 mm | - | 697 W/m² | - |
* Rain latest hour (hover to see other rain measurements)
** Current wind speed in m/s (hover to see current wind gust speed)